Location: Bishop�s Knoyle
(51.0728°N, 2.1714°W)
Time: 19:37:45
(UTC+00:00)

ISS - Visible Passes

Search period start: 25 September 2021 00:00
Search period end: 05 October 2021 00:00
Orbit: 417 x 423 km, 51.6° (Epoch: 25 September)

Date Brightness Start Highest point End Pass type
(mag) Time Alt. Az. Time Alt. Az. Time Alt. Az.
25 Sep -3.8 19:48:56 10° W 19:52:19 81° N 19:52:52 59° ENE visible
25 Sep -0.3 21:25:48 10° W 21:25:50 10° W 21:25:50 10° W visible
26 Sep -3.7 19:01:37 10° W 19:05:00 79° N 19:07:19 19° E visible
26 Sep -1.8 20:38:29 10° W 20:40:17 29° W 20:40:17 29° W visible
27 Sep -3.9 19:51:11 10° W 19:54:33 79° SSW 19:54:45 75° SSE visible
28 Sep -3.8 19:03:52 10° W 19:07:15 88° N 19:09:13 23° E visible
28 Sep -1.3 20:40:47 10° W 20:42:11 21° W 20:42:11 21° W visible
29 Sep -3.7 18:16:33 10° W 18:19:56 81° N 18:23:19 10° E visible
29 Sep -3.2 19:53:25 10° W 19:56:41 48° SSW 19:56:41 48° SSW visible
30 Sep -3.5 19:06:06 10° W 19:09:27 63° SSW 19:11:13 25° SE visible
30 Sep -0.8 20:43:28 10° W 20:44:11 13° WSW 20:44:11 13° WSW visible
01 Oct -3.7 18:18:47 10° W 18:22:10 79° SSW 18:25:32 10° ESE visible
01 Oct -2.1 19:55:52 10° W 19:58:41 25° SW 19:58:46 25° SSW visible
02 Oct -2.5 19:08:24 10° W 19:11:30 34° SSW 19:13:25 19° SSE visible
03 Oct -2.9 18:21:02 10° W 18:24:18 47° SSW 18:27:32 10° SE visible
03 Oct -1.0 19:59:09 10° WSW 20:00:29 12° SW 20:01:07 11° SSW visible
04 Oct -1.3 19:11:05 10° W 19:13:24 17° SW 19:15:42 10° S visible
